Location: Unspecified
(48.2082°N, 0.0000°E)
Time: 02:00:31
(UTC+00:00)

Altair - Pass Details

Date: 24 June 2019
Orbit: 1501 x 1683 km, 47.2° (Epoch: 14 October)

Event Time Altitude Azimuth Distance (km) Brightness Sun altitude
Rises 02:17:31 0° 291° (WNW) 4,859 10.0 -12.2°
Reaches altitude 10° 02:21:04 10° 281° (WNW) 3,892 9.4 -11.9°
Maximum altitude 02:29:21 31° 225° (SW) 2,629 8.2 -11.2°
Drops below altitude 10° 02:37:44 10° 168° (SSE) 3,937 9.2 -10.4°
Sets 02:41:23 0° 159° (SSE) 4,921 9.8 -10.0°
